www.pogodaiklimat.ru

Погода и климат >> Архив погоды >> Кувейт >> Метеостанция Mintribah


ПОГОДА на Метеостанции Mintribah

  • Прогноз погоды на Метеостанции Mintribah
  • Монитор погоды на Метеостанции Mintribah

АРХИВ ПОГОДЫ на Метеостанции Mintribah

Время (UTC), дата Ветер
(напр.,м/с)
 
Видим.   Явления Облачность Т
(С)
Тd
(С)
f
(%)
Тe
(С)
Тes
(С)
Комфортность P
(гПа)
Po
(гПа)
Тmin
(С)
Tmax
(С)
R
(мм)
R24
(мм)
S
(см)
00 9.07 З 5-6
{7}
20 км н/о +31.0 +1.6 15 +28 +28 жарко 997.9 984.6
03 9.07 З 8-10
{10}
17 км н/о +31.3 +1.2 15 +29 +29 жарко 998.3 985.1
06 9.07 З 8-10
{10}
20 км н/о +40.1 +2.4 10 +37 +37 очень
жарко
998.8 985.9
09 9.07 З 8-13
{14}
18 км н/о +46.3 +5.3 9 +44 +44 опасность
перегрева
997.3 984.7
12 9.07 З 10-13
{17}
19 км н/о +46.1 +5.7 9 +43 +43 опасность
перегрева
996.0 983.4
15 9.07 З 10-13
{16}
20 км н/о +42.1 +6.6 12 +40 +40 очень
жарко
995.7 982.9
18 9.07 З 4-4
{16}
20 км н/о +35.9 +5.0 15 +33 +33 жарко 997.3 984.3
21 9.07 ЮЗ 4-5
{6}
20 км н/о +32.2 +5.2 18 +30 +30 жарко 996.6 983.4 +29.9 +46.9
00 10.07 ЮЗ 7-8
{8}
20 км н/о +30.0 +1.7 16 +27 +27 жарко 995.1 981.8
03 10.07 З 7-9
{9}
20 км н/о +31.2 +1.6 15 +28 +28 жарко 995.4 982.2
06 10.07 СЗ 10-12
{12}
17 км н/о +40.7 +5.3 12 +38 +38 очень
жарко
995.1 982.3
09 10.07 З 10-14
{16}
19 км н/о +46.8 +3.9 8 +44 +44 опасность
перегрева
993.5 981.0
12 10.07 З 12-19
{19}
10 км дым н/о +46.9 +4.5 8 +44 +44 опасность
перегрева
992.2 979.7
15 10.07 З 8-11
{17}
20 км н/о +43.3 +0.3 7 +40 +40 очень
жарко
993.1 980.4
18 10.07 З 5-6
{17}
20 км н/о +35.6 -3.3 8 +32 +32 жарко 994.8 981.8
21 10.07 З 6-7
{7}
20 км н/о +33.3 +1.6 13 +30 +30 жарко 994.7 981.6 +28.1 +48.3
00 11.07 ЮЗ 5-6
{7}
20 км н/о +30.6 +2.9 17 +28 +28 жарко 994.8 981.6
03 11.07 ЮЗ 5-6
{7}
20 км н/о +30.0 +2.6 17 +28 +28 жарко 996.5 983.2
06 11.07 З 10-13
{13}
19 км н/о +42.3 +3.8 10 +39 +39 очень
жарко
996.8 984.0
09 11.07 З 9-15
{17}
17 км н/о +46.0 +5.4 9 +43 +43 опасность
перегрева
996.5 983.9
12 11.07 З 10-15
{17}
16 км н/о +46.4 +4.1 8 +43 +43 опасность
перегрева
995.2 982.6
15 11.07 З 7-10
{16}
19 км н/о +43.5 -0.5 7 +40 +40 очень
жарко
995.4 982.7
18 11.07 З 6-6
{16}
18 км н/о +37.0 +0.6 10 +33 +33 жарко 997.7 984.7
21 11.07 ЮЗ 4-5
{7}
20 км н/о +32.3 +2.4 15 +29 +29 жарко 997.6 984.4 +28.7 +47.3
00 12.07 ЮЗ 6-7
{8}
20 км н/о +30.7 +4.2 19 +29 +29 жарко 997.2 983.9
03 12.07 ЮЗ 5-6
{8}
20 км н/о +29.7 +3.2 18 +28 +28 жарко 998.3 985.0
06 12.07 З 8-10
{11}
20 км н/о +43.0 +3.1 9 +40 +40 очень
жарко
998.4 985.6
09 12.07 СЗ 11-15
{17}
15 км н/о +47.0 +5.6 9 +44 +44 опасность
перегрева
997.2 984.6
12 12.07 СЗ 12-16
{20}
16 км н/о +47.0 +4.8 8 +44 +44 опасность
перегрева
995.9 983.3
15 12.07 СЗ 11-14
{17}
19 км н/о +43.6 +3.6 9 +40 +40 очень
жарко
996.6 983.9
18 12.07 З 9-12
{17}
20 км н/о +38.8 +5.4 13 +36 +36 очень
жарко
998.7 985.8
21 12.07 З 6-7
{9}
20 км н/о +34.1 +6.2 18 +32 +32 жарко 998.7 985.6 +27.9 +48.2
00 13.07 З 6-8
{9}
20 км н/о +30.9 +6.3 21 +29 +29 жарко 998.4 985.1
03 13.07 З 6-7
{8}
20 км н/о +30.6 +5.6 21 +29 +29 жарко 999.4 986.1
06 13.07 З 10-12
{12}
20 км н/о +42.6 +3.2 9 +39 +39 очень
жарко
999.3 986.5
09 13.07 СЗ 12-17
{17}
10 км дым н/о +46.0 +5.0 9 +43 +43 опасность
перегрева
998.1 985.5
12 13.07 СЗ 11-16
{19}
17 км н/о +46.1 +4.5 8 +43 +43 опасность
перегрева
997.3 984.7
15 13.07 СЗ 11-14
{17}
18 км н/о +42.8 +4.4 10 +40 +40 очень
жарко
997.4 984.6
18 13.07 З 7-9
{17}
20 км н/о +37.3 +4.2 13 +34 +34 очень
жарко
999.8 986.8
21 13.07 З 6-6
{9}
20 км н/о +32.6 +3.9 16 +30 +30 жарко 1000.1 986.9 +29.3 +47.6
00 14.07 ЮЗ 5-6
{9}
20 км н/о +28.6 +3.1 19 +27 +27 жарко 999.9 986.5
03 14.07 ЮЗ 5-6
{8}
17 км н/о +28.5 +1.0 17 +26 +26 жарко 1001.0 987.6
06 14.07 З 6-9
{9}
20 км н/о +40.2 +4.4 11 +37 +37 очень
жарко
1001.2 988.3
09 14.07 СЗ 9-13
{14}
20 км н/о +43.6 +5.7 10 +41 +41 опасность
перегрева
999.9 987.1
12 14.07 З 10-16
{16}
19 км н/о +44.2 +5.6 10 +41 +41 опасность
перегрева
998.4 985.7
15 14.07 З 10-14
{14}
20 км н/о +41.7 +6.3 12 +39 +39 очень
жарко
998.2 985.4
18 14.07 З 6-8
{14}
20 км н/о +36.0 +5.6 15 +33 +33 жарко 1000.1 987.0
21 14.07 З 6-8
{9}
20 км н/о +33.0 +8.8 22 +32 +32 жарко 999.6 986.4 +26.3 +45.6
00 15.07 З 5-6
{9}
20 км н/о +29.3 +8.8 28 +29 +29 жарко 999.5 986.2
03 15.07 З 7-9
{9}
20 км н/о +29.9 +8.6 26 +29 +29 жарко 999.8 986.5
06 15.07 З 9-13
{13}
20 км н/о +40.0 +6.6 13 +37 +37 очень
жарко
1000.1 987.2
09 15.07 З 12-17
{17}
16 км н/о +44.7 +4.9 9 +42 +42 опасность
перегрева
998.7 986.0
12 15.07 З 11-15
{19}
19 км н/о +45.8 +4.6 8 +43 +43 опасность
перегрева
996.8 984.2
15 15.07 СЗ 11-15
{21}
13 км н/о +41.8 +2.8 9 +38 +38 очень
жарко
996.6 983.8
18 15.07 З 6-8
{21}
20 км н/о +36.0 +3.6 13 +33 +33 жарко 998.3 985.3
21 15.07 З 8-9
{10}
20 км н/о +32.8 +5.8 19 +31 +31 жарко 997.7 984.5 +28.3 +46.3

 

Местоположение метеостанции Метеостанция Mintribah (Кувейт): широта 29.82 долгота 47.37 высота над уровнем моря 119 м.

В архиве по умолчанию представлена погода на Метеостанции Mintribah за последнюю неделю. Архивные данные за месяц целиком и за предыдущие месяцы, начиная с января 2011 года, Вы можете получить, выбрав интересующий диапазон дат из раскрывающегося списка и нажав кнопку "Ввод!".


*Определитесь, кто Вы:
робот инопланетянин человек

Внимание! Время в таблицах - всемирное. Для получения местного времени необходимо прибавить поправку, которая равна 3 ч.

Смотрите также архив погоды в соседних городах и на ближайших метеорологических станциях:

Погода на Метеостанции Jal Aliyah (Кувейт) (31 км)
Погода в Абдали (Кувейт) (43 км)
Погода на Метеостанции Sabriyah (Кувейт) (47 км)
Погода в Эль-Джахра (Кувейт) (63 км)
Погода на Абраке Аль Хабари (Кувейт) (68 км)
Погода в Сулайбии (Кувейт) (70 км)
Погода на Экспериментальной ферме (Кувейт) (81 км)
Погода в Минагише (Кувейт) (85 км)
Погода в Кувейт Сити (Кувейт) (85 км)
Погода в Басре аэропорт (Ирак) (87 км)

Пояснения к столбцам:

Ветер - указаны скорость ветра в м/с - средняя за 10 мин, порывы в срок и между сроками (в фигурных скобках) и направление, откуда дует ветер: С - северный, СВ - северо-восточный, В - восточный, ЮВ - юго-восточный, Ю - южный, ЮЗ - юго-западный, З - западный, СЗ - северо-западный.
Видимость - горизонтальная дальность видимости в метрах или километрах. При видимости от 1 до 10 км при отсутствии осадков обычно наблюдается дымка, при ухудшении видимости до 1 км и менее - туман. В сухую погоду видимость может ухудшаться дымом, пылью или мглою.
Явления - указаны атмосферные явления, наблюдавшиеся в срок или в последний час перед сроком; фигурными скобками обозначены явления, наблюдавшиеся между сроками (за 1-3 часа до срока); квадратными скобками обозначены град или гололедные отложения с указанием их диаметра в мм.
Облачность - указаны через наклонную черту общая и нижняя облачность в баллах и высота нижней границы облаков в метрах; квадратными скобками обозначены формы облаков: Ci - перистые, Cs - перисто-слоистые, Cc - перисто-кучевые, Ac - высококучевые, As - высокослоистые, Sc - слоисто-кучевые, Ns - слоисто-дождевые, Cu - кучевые, Cb - кучево-дождевые. Подробнее классификацию облаков см. в Атласе облаков (PDF).
T - Температура воздуха - температура, измеренная на высоте 2 м над землей.
Td - Температура точки росы - температура, при понижении до которой содержащийся в воздухе водяной пар достигнет насыщения.
f - Относительная влажность воздуха - влажноcть воздуха, измеренная на высоте 2 м над землей.
Te - Эффективная температура - температура, которую ощущает одетый по сезону человек в тени. Характеристика душности погоды. При расчете учитывается влияние влажности воздуха и скорости ветра на теплоощущения человека.
Tes - Эффективная температура на солнце - температура, которую ощущает человек, с поправкой на солнечный нагрев. Характеристика знойности погоды. Зависит от высоты солнца над горизонтом, облачности и скорости ветра. Ночью, в пасмурную погоду, а также при ветре 12 м/с и более поправка равна нулю.
P - Атмосферное давление - приведенное к уровню моря атмосферное давление.
Po - Атмосферное давление - измеренное на уровне метеостанции атмосферное давление.
Tmin - Минимальная температура - минимум температуры воздуха на высоте 2 м над землей.
Tmax - Максимальная температура - максимум температуры воздуха на высоте 2 м над землей.
R - Количество осадков - Количество выпавших осадков за период времени, мм. При наведении курсора мыши на число - период времени, за который выпало указанное количество осадков.
R24 - Количество осадков - Количество выпавших осадков за 24 часа, мм.
S - Снежный покров - Высота снежного покрова, см. При наведении курсора мыши на число - состояние снежного покрова и степень покрытия местности в баллах.